KAZSAT-3

Last updated on Wed Mar 04 2026 00:02:50 GMT+0000 (Coordinated Universal Time)

1 39728U 14023B 26062.63994633 .00000047 00000+0 00000+0 0 9997 2 39728 0.0301 57.1580 0000407 357.1245 35.9838 1.00271716 41397
UTC large
Height (km)
Speed (km/s)
/
Latitude / Longitude
Inclination (degrees)
Orbital Period (minutes)
Azimuth
Elevation
Range (km)
Doppler Factor

Next 0 passes for location: London (51.5072 / 0.1276)

Sorry there are no passes over London.